Location: Poughquag
(41.6090°N, 73.6820°W)
Time: 08:59:48
(UTC-05:00)

SR - Pass Details

Date: 12 December 2023
Orbit: 574 x 868 km, 66.7° (Epoch: 25 February)

Event Time Altitude Azimuth Distance (km) Brightness Sun altitude
Rises 10:45:06 0° 246° (WSW) 3,310 ? 23.7°
Maximum altitude 10:52:33 26° 315° (NW) 1,611 ? 24.0°
Drops below altitude 10° 10:57:24 10° 11° (N) 2,516 ? 24.2°
Sets 11:00:21 0° 23° (NNE) 3,462 ? 24.4°
